Auburn, AL

11:41 AM CDT on August 30, 2016 (GMT -0500)
Auburn-opelika-pitts

Weather History for KAUO - December, 2013

Change the Weather History Date:

Thursday, December 12, 2013

  Actual Average Record
Temperature  
Mean Temperature 38 °F -  
Max Temperature 43 °F - 77 °F (1971)
Min Temperature 32 °F - 10 °F (1957)
Degree Days  
Heating Degree Days 27    
Month to date heating degree days 135  
Since 1 July heating degree days 570  
Moisture  
Dew Point 23 °F    
Average Humidity 60    
Maximum Humidity 70    
Minimum Humidity 39    
Precipitation  
Precipitation 0.00 in - 2.70 in (1982)
Month to date precipitation 1.38  
Year to date precipitation 42.64  
Sea Level Pressure  
Sea Level Pressure 30.41 in    
Wind  
Wind Speed 9 mph (North)    
Max Wind Speed 12 mph    
Max Gust Speed 17 mph    
Visibility 10 miles    
Events      
T = Trace of Precipitation, MM = Missing Value Source: NWS Daily Summary

Daily Weather History Graph

Daily Weather History Graph

Search for Another Location

Airport or City:

Trip Planner

Search our weather history database for the weather conditions in past years. The results will help you decide how hot, cold, wet, or windy it might be!

Date:

Astronomy

Dec. 12, 2013 Rise Set
Actual Time 6:34 AM CST 4:36 PM CST
Civil Twilight 6:07 AM CST 5:03 PM CST
Nautical Twilight 5:36 AM CST 5:34 PM CST
Astronomical Twilight 5:06 AM CST 6:04 PM CST
Moon 1:33 PM CST (12/12) 2:07 AM CST (12/12)
Length of Visible Light 10h 56m
Length of Day
10h 02m
Waxing Gibbous, 80% of the Moon is Illuminated
Dec 12
Waxing Gibbous
Dec 17
Full
Dec 25
Last Quarter
Jan 1
New
Jan 7
First Quarter

Hourly Weather History & Observations

Time (CST) Temp. Windchill Dew Point Humidity Pressure Visibility Wind Dir Wind Speed Gust Speed Precip Events Conditions
12:15 AM 39.2 °F 35.0 °F 24.8 °F 56% 30.37 in 10.0 mi North 5.8 mph - N/A   Clear
12:35 AM 39.2 °F 35.0 °F 24.8 °F 56% 30.36 in 10.0 mi North 5.8 mph - N/A   Clear
12:55 AM 37.4 °F 31.4 °F 24.8 °F 60% 30.37 in 10.0 mi North 8.1 mph - N/A   Clear
1:15 AM 37.4 °F 31.4 °F 24.8 °F 60% 30.37 in 10.0 mi North 8.1 mph - N/A   Clear
1:35 AM 37.4 °F 32.1 °F 24.8 °F 60% 30.38 in 10.0 mi North 6.9 mph - N/A   Clear
1:55 AM 37.4 °F 30.8 °F 24.8 °F 60% 30.38 in 10.0 mi North 9.2 mph - N/A   Clear
2:15 AM 37.4 °F 30.8 °F 24.8 °F 60% 30.38 in 10.0 mi North 9.2 mph - N/A   Clear
2:35 AM 37.4 °F 31.4 °F 24.8 °F 60% 30.38 in 10.0 mi North 8.1 mph - N/A   Clear
2:55 AM 37.4 °F 31.4 °F 24.8 °F 60% 30.39 in 10.0 mi North 8.1 mph - N/A   Clear
3:15 AM 35.6 °F 29.9 °F 24.8 °F 65% 30.38 in 10.0 mi North 6.9 mph - N/A   Clear
3:35 AM 35.6 °F 29.2 °F 23.0 °F 60% 30.38 in 10.0 mi North 8.1 mph - N/A   Clear
3:55 AM 35.6 °F 29.2 °F 23.0 °F 60% 30.38 in 10.0 mi North 8.1 mph - N/A   Clear
4:15 AM 35.6 °F 29.2 °F 23.0 °F 60% 30.38 in 10.0 mi North 8.1 mph - N/A   Clear
4:35 AM 33.8 °F 25.8 °F 24.8 °F 70% 30.40 in 10.0 mi North 10.4 mph - N/A   Clear
4:55 AM 33.8 °F 25.3 °F 23.0 °F 65% 30.40 in 10.0 mi North 11.5 mph - N/A   Clear
5:15 AM 33.8 °F 25.8 °F 23.0 °F 65% 30.40 in 10.0 mi North 10.4 mph - N/A   Clear
5:35 AM 33.8 °F 25.8 °F 23.0 °F 65% 30.41 in 10.0 mi North 10.4 mph - N/A   Clear
5:55 AM 33.8 °F 26.4 °F 23.0 °F 65% 30.42 in 10.0 mi North 9.2 mph 17.3 mph N/A   Clear
6:15 AM 33.8 °F 25.8 °F 23.0 °F 65% 30.43 in 10.0 mi North 10.4 mph - N/A   Clear
6:35 AM 32.0 °F 23.0 °F 23.0 °F 69% 30.44 in 10.0 mi North 11.5 mph - N/A   Clear
6:55 AM 32.0 °F 24.2 °F 23.0 °F 69% 30.44 in 10.0 mi North 9.2 mph - N/A   Clear
7:15 AM 33.8 °F 27.0 °F 23.0 °F 65% 30.44 in 10.0 mi North 8.1 mph - N/A   Clear
7:55 AM 35.6 °F 27.5 °F 24.8 °F 65% 30.45 in 10.0 mi North 11.5 mph 17.3 mph N/A   Clear
8:15 AM 35.6 °F 29.2 °F 23.0 °F 60% 30.46 in 10.0 mi North 8.1 mph 18.4 mph N/A   Clear
8:35 AM 37.4 °F 29.8 °F 21.2 °F 52% 30.46 in 10.0 mi North 11.5 mph 17.3 mph N/A   Clear
8:55 AM 39.2 °F 32.5 °F 21.2 °F 49% 30.47 in 10.0 mi North 10.4 mph - N/A   Clear
9:15 AM 39.2 °F 33.6 °F 19.4 °F 45% 30.47 in 10.0 mi North 8.1 mph - N/A   Clear
9:35 AM 41.0 °F 34.7 °F 19.4 °F 42% 30.48 in 10.0 mi North 10.4 mph - N/A   Clear
9:55 AM 42.8 °F 38.0 °F 19.4 °F 39% 30.47 in 10.0 mi North 8.1 mph - N/A   Clear